DW0108 Weather Reports


Display with metric or nautical units.
time (UTC)temp
F
wind
direction
speed
MPH
gust
MPH
rain 1hr
in
rain 24hr
in
rain mn
in
humidity
%
barometer
mb
20260904123809 76 131 0.0 1.0 0.00 0.00 4.15 99 1014.2
20260904120848 76 189 0.0 2.0 0.00 0.00 3.85 99 1013.8
20260904115843 76 176 0.0 2.0 0.00 0.00 3.75 99 1013.8
20260904113814 76 169 0.0 0.0 0.00 0.00 3.55 99 1013.5
20260904112805 76 187 0.0 0.0 0.00 0.00 3.44 99 1013.5
20260904111840 76 163 0.0 0.0 0.00 0.00 3.35 99 1013.5
20260904110821 76 200 0.0 1.0 0.00 0.00 3.25 99 1013.5
20260904104807 76 170 0.0 1.0 0.00 0.00 3.05 99 1013.5
20260904102840 76 183 0.0 2.0 0.00 0.00 2.85 99 1013.5
20260904101827 76 170 0.0 1.0 0.00 0.00 2.75 99 1013.2
20260904100820 76 164 0.0 2.0 0.00 0.00 2.65 99 1013.5
20260904095817 76 160 0.0 1.0 0.00 0.00 2.54 99 1013.2
20260904094831 76 135 0.0 3.0 0.00 0.00 2.45 99 1013.5
20260904093813 76 115 0.0 1.0 0.00 0.00 2.35 99 1013.5
20260904092806 76 128 0.0 2.0 0.00 0.00 2.25 99 1013.2
20260904091805 76 110 1.0 2.0 0.00 0.00 2.15 99 1013.2
20260904085840 77 158 1.0 4.0 0.00 0.00 1.95 99 1013.2
20260904084832 76 210 0.0 2.0 0.00 0.00 1.85 99 1013.2
20260904083818 76 165 0.0 2.0 0.00 0.00 1.75 99 1013.2
20260904082831 76 169 1.0 2.0 0.00 0.00 1.65 99 1013.2
20260904081810 76 168 2.0 4.0 0.00 0.00 1.55 99 1013.2
20260904080835 76 173 1.0 3.0 0.00 0.00 1.45 99 1013.2
20260904075832 76 186 1.0 4.0 0.00 0.00 1.35 99 1013.2
20260904074825 76 169 2.0 3.0 0.00 0.00 1.25 99 1013.2
20260904073840 76 161 2.0 6.0 0.00 0.00 1.14 99 1013.2
20260904072825 76 150 0.0 2.0 0.00 0.00 1.05 99 1013.2
20260904071819 76 169 1.0 2.0 0.00 0.00 0.95 99 1013.2
20260904070829 75 168 1.0 2.0 0.00 0.00 0.85 99 1013.5
20260904065817 76 167 1.0 3.0 0.00 0.00 0.75 99 1013.5
20260904064821 75 173 1.0 4.0 0.00 0.00 0.65 99 1013.5
20260904063811 75 171 2.0 4.0 0.00 0.00 0.55 99 1013.5
20260904061814 75 163 2.0 5.0 0.00 0.00 0.35 99 1013.5
20260904060815 75 174 3.0 5.0 0.00 0.00 0.25 99 1013.8
20260904055839 75 172 3.0 8.0 0.00 0.00 0.15 99 1013.5
20260904054827 78 159 3.0 8.0 0.00 0.00 0.05 90 1013.8
20260904052820 79 167 1.0 3.0 0.00 0.00 0.00 88 1013.8
20260904051821 80 155 2.0 4.0 0.00 0.00 0.00 83 1013.5
20260904045815 81 154 2.0 5.0 0.00 0.00 0.00 78 1013.5
20260904044813 82 155 3.0 7.0 0.00 0.00 0.00 76 1013.5
20260904041838 82 138 2.0 4.0 0.00 0.00 0.00 72 1013.5
20260904040814 82 156 2.0 4.0 0.00 0.00 0.00 72 1013.2
20260904035821 83 157 2.0 4.0 0.00 0.00 0.00 72 1013.5
20260904034828 83 164 2.0 4.0 0.00 0.00 0.00 72 1013.5
20260904033841 83 155 2.0 6.0 0.00 0.00 0.00 71 1013.8
20260904032839 83 165 2.0 6.0 0.00 0.00 0.00 71 1013.5
20260904031831 83 156 2.0 5.0 0.00 0.00 0.00 70 1013.5
20260904030847 83 154 1.0 4.0 0.00 0.00 0.00 70 1013.5
20260904025831 84 154 2.0 3.0 0.00 0.00 0.00 70 1013.2
20260904023817 84 168 1.0 3.0 0.00 0.00 0.00 71 1012.8
20260904022819 84 158 1.0 3.0 0.00 0.00 0.00 69 1012.8
20260904021827 84 151 2.0 6.0 0.00 0.00 0.00 68 1012.8
20260904020837 85 162 1.0 3.0 0.00 0.00 0.00 66 1012.8
20260904015823 85 153 2.0 4.0 0.00 0.00 0.00 65 1012.5
20260904014832 85 147 2.0 4.0 0.00 0.00 0.00 64 1012.5
20260904013841 86 170 3.0 8.0 0.00 0.00 0.00 63 1011.8
20260904012841 86 142 2.0 6.0 0.00 0.00 0.00 61 1012.1
20260904011806 87 171 2.0 5.0 0.00 0.00 0.00 60 1011.8
20260904010830 87 170 3.0 6.0 0.00 0.00 0.00 63 1011.8
20260904005813 88 162 3.0 6.0 0.00 0.00 0.00 63 1011.5
20260904004805 88 165 2.0 6.0 0.00 0.00 0.00 62 1011.5
20260904003814 88 160 4.0 6.0 0.00 0.00 0.00 63 1011.5
20260904002824 88 156 4.0 9.0 0.00 0.00 0.00 63 1011.8
20260904001822 89 153 2.0 4.0 0.00 0.00 0.00 64 1011.5
20260903235833 90 134 2.0 4.0 0.00 0.00 0.00 63 1011.5
20260903234812 91 167 2.0 6.0 0.00 0.00 0.00 63 1011.5
20260903233831 91 134 1.0 4.0 0.00 0.00 0.00 62 1011.1
20260903231813 91 150 2.0 5.0 0.00 0.00 0.00 63 1011.1
20260903230838 92 165 1.0 3.0 0.00 0.00 0.00 63 1011.1
20260903225824 91 151 2.0 5.0 0.00 0.00 0.00 63 1011.1
20260903224842 91 142 2.0 6.0 0.00 0.00 0.00 63 1010.8
20260903223809 92 134 2.0 4.0 0.00 0.00 0.00 63 1010.8
20260903222844 91 163 1.0 3.0 0.00 0.00 0.00 64 1011.1
20260903221838 91 153 1.0 3.0 0.00 0.00 0.00 64 1011.1
20260903220847 91 146 1.0 4.0 0.00 0.00 0.00 66 1011.1
20260903214842 91 142 1.0 3.0 0.00 0.00 0.00 65 1011.1
20260903213834 92 149 2.0 5.0 0.00 0.00 0.00 64 1011.1
20260903211826 92 170 3.0 8.0 0.00 0.00 0.00 65 1011.5
20260903210812 91 141 1.0 3.0 0.00 0.00 0.00 65 1011.5
20260903204840 92 138 1.0 4.0 0.00 0.00 0.00 65 1011.5
20260903203842 90 125 2.0 5.0 0.00 0.00 0.00 67 1011.8
20260903201828 91 163 2.0 4.0 0.00 0.00 0.00 67 1011.8
20260903195847 90 155 2.0 5.0 0.00 0.00 0.00 68 1012.1
20260903194813 90 162 3.0 6.0 0.00 0.00 0.00 68 1012.1
20260903192843 89 167 3.0 6.0 0.00 0.00 0.00 70 1012.5
20260903185811 89 149 2.0 5.0 0.00 0.00 0.00 69 1013.2
20260903184813 88 162 3.0 6.0 0.00 0.00 0.00 69 1013.2
20260903183840 89 166 4.0 9.0 0.00 0.00 0.00 67 1013.2
20260903182828 90 167 2.0 6.0 0.00 0.00 0.00 67 1013.5
20260903181826 90 153 5.0 9.0 0.00 0.00 0.00 66 1013.5
20260903180813 90 167 4.0 7.0 0.00 0.00 0.00 65 1013.5
20260903175816 89 160 4.0 10.0 0.00 0.00 0.00 67 1013.8
20260903174804 91 174 3.0 8.0 0.00 0.00 0.00 65 1013.5
20260903173825 89 163 3.0 7.0 0.00 0.00 0.00 69 1013.8
20260903172837 89 166 2.0 3.0 0.00 0.00 0.00 68 1014.2
20260903171845 88 161 3.0 7.0 0.00 0.00 0.00 69 1014.2
20260903170821 88 159 3.0 6.0 0.00 0.00 0.00 70 1014.2
20260903165814 88 163 3.0 6.0 0.00 0.00 0.00 72 1014.2
20260903164818 87 160 2.0 3.0 0.00 0.00 0.00 72 1014.2
20260903162813 86 147 1.0 4.0 0.00 0.00 0.00 75 1014.2
20260903161813 85 151 1.0 4.0 0.00 0.00 0.00 76 1014.2
20260903160838 85 119 1.0 3.0 0.00 0.00 0.00 78 1013.8
20260903155819 84 164 0.0 1.0 0.00 0.00 0.00 79 1014.2
20260903153839 82 139 1.0 2.0 0.00 0.00 0.00 81 1014.2
20260903152840 82 154 2.0 4.0 0.00 0.00 0.00 81 1014.2
20260903151823 82 146 1.0 3.0 0.00 0.00 0.00 81 1014.2
20260903143843 81 139 0.0 2.0 0.00 0.00 0.00 82 1014.2
20260903142847 81 141 1.0 3.0 0.00 0.00 0.00 82 1014.2
20260903140830 80 151 0.0 3.0 0.00 0.00 0.00 83 1013.8
20260903135839 80 124 1.0 3.0 0.00 0.00 0.00 83 1014.2
20260903134824 79 158 2.0 4.0 0.00 0.00 0.00 84 1013.8
20260903133837 78 137 0.0 2.0 0.00 0.00 0.00 85 1014.2
20260903131821 78 114 0.0 1.0 0.00 0.00 0.00 86 1014.2
20260903130832 77 78 0.0 1.0 0.00 0.00 0.00 87 1013.8
20260903125831 77 59 0.0 1.0 0.00 0.00 0.00 87 1013.8
20260903124847 77 85 0.0 1.0 0.00 0.00 0.00 87 1014.2